User: anonymous   Login
Location: Newark
(44.6028°N, 124.0883°W)
Time: 00:56:38
(UTC+00:00)
Language:

SR - Orbit

View from above orbital plane
View from above orbital plane
View from above satellite
View from above satellite

Ground track
Ground track

The orbit data is extracted from the following two-line orbital elements,

1    46U 60007B   19294.10247709  .00000014  00000-0  25765-4 0  9992
2    46  66.6909 335.9560 0215948 309.0057  49.1992 14.49250831104277
Epoch (UTC): 21 October 2019 02:27:34
Eccentricity: 0.0215948
inclination: 66.6909°
perigee height: 574 km
apogee height: 881 km
right ascension of ascending node: 335.9560°
argument of perigee: 309.0057°
revolutions per day: 14.49250831
mean anomaly at epoch: 49.1992°
orbit number at epoch: 10427

The dashed part of the orbit path shows where the satellite is in the earth's shadow,  

DLR